Wichita Falls, TX

12:00 PM CDT on April 20, 2018 (GMT -0500)
Sheppard Air Force Base-Wichita Falls Municipal

Weather History for KSPS - July, 2013

Change the Weather History Date:

Wednesday, July 10, 2013

  Actual Average Record
Temperature  
Mean Temperature 93 °F 84 °F  
Max Temperature 104 °F 96 °F 109 °F (1964)
Min Temperature 82 °F 72 °F 58 °F (1961)
Degree Days  
Heating Degree Days 0 0  
Month to date heating degree days 0  
Since 1 June heating degree days 1  
Since 1 July heating degree days 0  
Cooling Degree Days 28 19  
Month to date cooling degree days 187 184  
Year to date cooling degree days 1074 939  
Since 1 June cooling degree days 620  
Growing Degree Days 43 (Base 50)    
Moisture  
Dew Point 61 °F    
Average Humidity 38    
Maximum Humidity 51    
Minimum Humidity 25    
Precipitation  
Precipitation 0.00 in 0.06 in 2.70 in (1966)
Month to date precipitation 0.00 0.59  
Year to date precipitation 10.12 16.23  
Sea Level Pressure  
Sea Level Pressure 29.93 in    
Wind  
Wind Speed 10 mph (South)    
Max Wind Speed 18 mph    
Max Gust Speed 24 mph    
Visibility 10 miles    
Events      
T = Trace of Precipitation, MM = Missing Value Source: NWS Daily Summary

Daily Weather History Graph

Daily Weather History Graph

Search for Another Location

Airport or City:

Astronomy

Jul. 10, 2013 Rise Set
Actual Time 6:31 AM CDT 8:47 PM CDT
Civil Twilight 6:02 AM CDT 9:16 PM CDT
Nautical Twilight 5:27 AM CDT 9:51 PM CDT
Astronomical Twilight 4:48 AM CDT 10:29 PM CDT
Moon 8:45 AM CDT (7/10) 10:08 PM CDT (7/10)
Length of Visible Light 15h 13m
Length of Day
14h 16m
Waxing Crescent, 5% of the Moon is Illuminated
Jul 10
Waxing Crescent
Jul 15
First Quarter
Jul 22
Full
Jul 29
Last Quarter
Aug 6
New

Hourly Weather History & Observations

Time (CDT) Temp. Heat Index Dew Point Humidity Pressure Visibility Wind Dir Wind Speed Gust Speed Precip Events Conditions
12:52 AM 88.0 °F 87.1 °F 59.0 °F 37% 29.95 in 10.0 mi South 11.5 mph - N/A   Clear
1:52 AM 86.0 °F 85.4 °F 59.0 °F 40% 29.96 in 10.0 mi South 10.4 mph - N/A   Clear
2:52 AM 84.9 °F 84.8 °F 60.1 °F 43% 29.95 in 10.0 mi South 11.5 mph - N/A   Clear
3:52 AM 84.0 °F 84.0 °F 60.1 °F 44% 29.95 in 10.0 mi SSW 11.5 mph - N/A   Clear
4:52 AM 84.0 °F 84.0 °F 60.1 °F 44% 29.95 in 10.0 mi SSW 11.5 mph - N/A   Mostly Cloudy
5:52 AM 82.9 °F 83.3 °F 61.0 °F 47% 29.96 in 10.0 mi SSW 11.5 mph - N/A   Mostly Cloudy
6:52 AM 82.0 °F 82.7 °F 61.0 °F 49% 29.97 in 10.0 mi SSW 12.7 mph - N/A   Mostly Cloudy
7:52 AM 82.9 °F 83.7 °F 62.1 °F 49% 29.99 in 10.0 mi SW 13.8 mph - N/A   Mostly Cloudy
8:52 AM 86.0 °F 87.3 °F 64.0 °F 48% 29.99 in 10.0 mi WSW 12.7 mph - N/A   Mostly Cloudy
9:52 AM 89.1 °F 90.3 °F 64.0 °F 43% 30.00 in 10.0 mi WSW 16.1 mph - N/A   Mostly Cloudy
10:52 AM 93.9 °F 95.6 °F 64.0 °F 37% 29.99 in 10.0 mi WSW 15.0 mph - N/A   Mostly Cloudy
11:52 AM 97.0 °F 98.3 °F 63.0 °F 32% 29.99 in 10.0 mi SW 13.8 mph - N/A   Mostly Cloudy
12:52 PM 99.0 °F 99.5 °F 61.0 °F 28% 29.97 in 10.0 mi SW 11.5 mph 17.3 mph N/A   Mostly Cloudy
1:52 PM 99.0 °F 99.5 °F 61.0 °F 28% 29.95 in 10.0 mi SSW 8.1 mph - N/A   Mostly Cloudy
2:52 PM 102.0 °F 103.3 °F 61.0 °F 26% 29.93 in 10.0 mi South 8.1 mph 17.3 mph N/A   Mostly Cloudy
3:52 PM 100.9 °F 101.6 °F 60.1 °F 26% 29.91 in 10.0 mi South 5.8 mph - N/A   Mostly Cloudy
4:52 PM 100.9 °F 101.6 °F 60.1 °F 26% 29.88 in 10.0 mi SSE 11.5 mph - N/A   Mostly Cloudy
5:52 PM 100.9 °F 101.0 °F 59.0 °F 25% 29.86 in 10.0 mi South 6.9 mph - N/A   Mostly Cloudy
6:52 PM 100.0 °F 100.7 °F 60.1 °F 27% 29.85 in 10.0 mi SE 10.4 mph - N/A   Mostly Cloudy
7:52 PM 99.0 °F 98.6 °F 59.0 °F 26% 29.85 in 10.0 mi SE 10.4 mph - N/A   Scattered Clouds
8:52 PM 95.0 °F 95.2 °F 61.0 °F 32% 29.85 in 10.0 mi ESE 8.1 mph - N/A   Partly Cloudy
9:52 PM 90.0 °F 90.6 °F 63.0 °F 40% 29.86 in 10.0 mi ESE 8.1 mph - N/A   Clear
10:52 PM 89.1 °F 90.0 °F 63.0 °F 42% 29.88 in 10.0 mi SE 8.1 mph - N/A   Clear
11:52 PM 87.1 °F 87.0 °F 61.0 °F 41% 29.90 in 10.0 mi SE 6.9 mph - N/A   Clear